Погода в Чите

Погода в Чите : погода сейчас, прогноз погоды и архив. Всё, что Вы хотите узнать о погоде в Чите!

Поиск расширенной информации на нашем сайте:

Другие новости

Новости СМИ2

Главная страница сайта

Новости сайта

03.07.2017

Напоминаем, что на нашем специализированном сайте Метеоцентр.Азия вы можете получить высокодетализированные автоматические прогнозы погоды по пунктам России, СНГ и мира в авиационном формате (включающие направление и скорость ветра, видимость, явления погоды, количество и форму облачности, нижнюю и верхнюю границу облачности).


Погода в Чите - сегодня

Время (UTC), дата Ветер
(°,м/с) 
Видим.   Явления Облачность Т
(°С)
Тd
(°С)
f(%) Тe
(°С)
Pmin
(гПа)
dP
(гПа)
Po
(мм)
O2
(г/м3)
Тmin Tmax R s Состояние
почвы
03 17.10.18 240 (ЮЗ) 20000 м    3/0 верхняя 
[Ci fib]
+2 -4.8 61 +3  1026.5  -0.4  709  284           
06 17.10.18 240 (ЮЗ) 20000 м    3/0 верхняя 
[Ci fib]
+9.3 -6.9 31 +10  1022  -2.1  707  276           
09 17.10.18 240 (ЮЗ) 20000 м    4/0 верхняя 
[Ci fib]
+10.3 -6.8 29 +11  1021.2  -0.5  707  275           
15 17.10.18 080 (В) 50000 м    4/0 верхняя 
[Ci fib]
-2.2 -5.6 77 -3  1026.9  0.7  708  288           
18 17.10.18 тихо ()   50000 м    ясно 
-3.8 -6 85 -4  1027.4  708  290           
21 17.10.18 070 (В) 50000 м    4/0 верхняя 
[Ci fib]
-5.3 -6.6 91 -5  1028  0.1  708  292           
00 18.10.18 тихо ()   20000 м  дым  10/0 верхняя 
[Ci fib]
-5.7 -6.9 91 -6  1028.5  0.3  709  292  -6.3         
03 18.10.18 230 (ЮЗ) 20000 м  дым  10/0 верхняя 
[Ci fib]
+2.2 -4.2 63 +3  1025.4  -0.5  708  283           
06 18.10.18 280 (З) 20000 м    6/0 верхняя 
[Ci fib]
+9.8 -3.7 38 +11  1020.4  -2.5  706  275           
09 18.10.18 090 (В) 20000 м    6/0 верхняя 
[Ci fib]
+10.8 -3.2 37 +12  1019.1  -1  706  274           
15 18.10.18 290 (З) 20000 м  дым  6/0 верхняя 
[Ci fib]
-0.6 -3.7 80 1024.3  0.8  707  286           
18 18.10.18 080 (В) 50000 м    6/0 верхняя 
[Ci fib]
-2.1 -4.3 85 -2  1024.8  707  287           
21 18.10.18 340 (С) 10 км  дым  4/0 верхняя 
[Ci fib]
-4.9 -6.3 90 -4  1025.7  707  291           
00 19.10.18 тихо ()   20000 м  дым  10/0 верхняя 
[Ci fib]
-4.4 -5.6 91 -4  1025.8  0.2  707  290  -5         
03 19.10.18 220 (ЮЗ) 20000 м  дым  10/0 средняя, верхняя 
[Ac lent|Cs]
+4.2 -4.4 53 +4  1022.3  -0.7  706  281           
06 19.10.18 200 (Ю) 20000 м  дым  4/0 верхняя 
[Ci fib]
+15.1 -6.2 22 +16  1016.6  -2.4  705  270           
09 19.10.18 190 (Ю) 20000 м    4/0 верхняя 
[Ci fib]
+14.4 -9.5 18 +16  1015.7  -1  704  270           
12 19.10.18 100 (В) 50000 м    ясно 
+3.7 -7.6 43 +3  1019.1  0.3  704  281    +16.1       
15 19.10.18 тихо ()   50000 м    ясно 
-1.5 -6.9 67 -2  1020.9  0.2  704  286           
18 19.10.18 тихо ()   20000 м  дым  ясно 
-4.2 -7.1 80 -4  1021.6  -0.2  704  289           
21 19.10.18 020 (С) 20000 м  дым  ясно 
-5.5 -8.2 81 -5  1021.4  -0.5  704  290           
00 20.10.18 080 (В) 20000 м  дым  ясно 
-5.8 -7.6 87 -5  1021  -0.5  703  290  -6.8         
03 20.10.18 280 (З) 20000 м  дым  ясно 
+2.6 -6.1 53 +3  1016.6  -1.6  702  281           
06 20.10.18 330 (СЗ) 20000 м  дым  8/0 средняя, верхняя 
[Ac trans|Ci fib]
+9.5 -6.4 32 +11  1011.1  -3.2  700  273           
09 20.10.18 140 (ЮВ) 20000 м    6/3 1000 м средняя, верхняя 
[Cu hum|Ac trans|Ci fib]
+11.2 -9.6 22 +11  1009.9  -0.7  699  271           
Время (UTC), дата Ветер
(°,м/с) 
Видим.   Явления Облачность Т
(°С)
Тd
(°С)
f(%) Тe
(°С)
Pmin
(гПа)
dP
(гПа)
Po
(мм)
O2
(г/м3)
Тmin Tmax R s Состояние
почвы

Для получения пояснительной информации подведите курсор к названию столбца.

ПОГОДА в Чите - архив

Всё, что Вы хотите узнать о погоде в Чите - удобно и подробно!

Выберите нужную дату (начиная с 1 января 2015* года) и нажмите кнопку "Найти".
Будут отображены архивные сводки погоды по пункту Чита, начиная с указанной даты.


Отображать данные в формате CSV (для использования в таблицах Excel)


Внимание! Наш архив погоды предназначен исключительно для личного некоммерческого использования в познавательных целях. Если Вам необходимы официальные справки о состоянии погоды (для производственных, юридических, коммерческих и т.п. целей), обращайтесь в органы Росгидромета.

*Примечание: данная дата относится к архиву по метеостанциям СССР (Россия, СНГ, Балтия).
Архив по метеостанциям Зарубежной Европы и Азии (кроме Китая) хранится 10 дней, по другим регионам земного шара (Китай, Африка, Америка, Австралия, Океания) - 1 день.

Чита - район местоположения метеостанции


Название, широта, долгота, высота метеостанции:
Чита (город) 52.1°ш. 113.3°д. 680 м над ур. моря [Российская Федерация]

Дополнительная информация

В oтличие oт бoльшинства пoгoдных сайтoв мы публикуем пoдрoбную метеoинфoрмацию в детальнoм прoфессиoнальнoм фoрмате.

Характеристики температуры и влажнoсти вoздуха измеряются на высoте 2 м в тени вдали oт зданий и деревьев.
Скoрoсть ветра измеряется на высoте 10 м (на урoвне рoста челoвека скoрoсть ветра ниже в 1.5-2 раза). Если метеoстанция нахoдится в гoрoде или в лесу, тo скoрoсть ветра занижена на 2-4 м/с пo сравнению с oткрытым местoм. Скoрoсть ветра над акватoриями крупных рек и oзёр, а также на вершинах хoлмoв на 2-5 м/с выше, чем в oбычных услoвиях.
Атмoсфернoе давление в разных тoчках местнoсти мoжет значительнo oтличаться oт давления на метеoстанции, в зависимoсти oт услoвий рельефа (при пoдъёме на 10 м давление пoнижается примернo на 1 мм рт.ст.).